Location: Quedlinburg
(51.7921°N, 11.1414°E)
Time: 05:39:37
(UTC+02:00)

STRAND 1 - Pass Details

Date: 19 March 2026
Orbit: 761 x 775 km, 98.4° (Epoch: 16 April)

Event Time Altitude Azimuth Distance (km) Brightness Sun altitude
Rises 18:58:29 0° 11° (N) 3,242 ? -5.7°
Reaches altitude 10° 19:00:50 10° 7° (N) 2,310 ? -6.1°
Maximum altitude 19:05:45 52° 292° (WNW) 949 ? -6.8°
Drops below altitude 10° 19:10:38 10° 217° (SW) 2,292 ? -7.6°
Sets 19:12:58 0° 213° (SSW) 3,213 ? -7.9°
